{"data":{"norad_id":55287,"epoch":"2026-09-20T22:00:03.000096Z","epoch_age_seconds":57388,"freshness":"FRESH","line1":"1 55287U 23010U   26263.91670139  .00056806  00000+0  35883-2 0  9991","line2":"2 55287  70.0004 232.2359 0003662 277.4220  58.3340 15.08744669  5667","mean_motion":15.08744669,"eccentricity":0.0003662,"inclination_deg":70.0004,"raan_deg":232.2359,"arg_perigee_deg":277.422,"mean_anomaly_deg":58.334,"bstar":0.0035883,"rev_number":566,"period_min":95.443584960896,"perigee_km":537.50135852562,"apogee_km":542.56822754684,"semimajor_km":6918.1717930362,"source":"CELESTRAK","updated_at":"2026-09-21T09:00:33.168236Z"}}